Location: ??????????
(48.4699°N, 37.9573°E)
Time: 13:24:59
(UTC+00:00)

ISS - Pass Details

Date: 20 January 2021
Orbit: 417 x 422 km, 51.6° (Epoch: 27 February)

Event Time Altitude Azimuth Distance (km) Brightness Sun altitude
Rises 16:06:08 0° 225° (SW) 2,362 0.9 -19.2°
Reaches altitude 10° 16:08:17 10° 218° (SW) 1,502 -0.3 -19.5°
Enters shadow 16:11:03 38° 169° (SSE) 661 -2.9 -20.0°
